timestamp,gas_concentrations,,corrected_fluxes_and_quality_flags,,,,,,,,,,storage_terms,,,turbulence,,,footprint,,
ISOdate,CO2_1_1_1,H2O_1_1_1,Tau_1_1_1,QcTau_1_1_1,H_1_1_1,QcH_1_1_1,LE_1_1_1, QcLE_1_1_1,Fc_1_1_1, QcFc_1_1_1,E_1_1_1, QcE_1_1_1,Sa_1_1_1,Sw_1_1_1,Sc_1_1_1,ustar_1_1_1,MO_length_1_1_1,ZL_1_1_1,Fetchmax_1_1_1,Fetch70_1_1_1,Fetch90_1_1_1
yyyymmddHHMM,[µmol+1mol_a-1],[mmol+1mol_a-1],[kg+1m-1s-2],[#],[W+1m-2],[#],[W+1m-2],[#],[µmol+1s-1m-2],[#],[mmol+1s-1m-2],[#],[W+1m-2],[W+1m-2],[µmol+1s-1m-2],[m+1s-1],[m],[#],[m],[m],[m]
201804230030,422.47943507116821,3.2632393180210912,0.15913275904872964,0,-9.6021220221333472,0,1.3587885154002894,0,0.46573967856307630,0,3.05677205552862853E-002,0,-9999.,-9999.,-9999.,0.37063000371264310,447.45000234443575,4.82735498643999672E-002,118.14323847864853,216.00351979229231,323.61263364363151
201804230100,422.59262638328232,3.2934272515609555,3.85171146831707334E-002,0,-13.726916691559529,0,-0.83001816865612943,0,0.23659097417886410,0,-1.86585025655388800E-002,0,-17.561623099876247,1.0484959365836912,8.83762660547501161E-002,0.18209589586571204,37.121038367240168,0.58188027463860770,191.68059002669651,1815.0000000000000,9152.0000000000000
201804230130,422.25059149407491,3.2946217512199230,4.73075934884506985E-002,1,-27.666413319926846,0,-1.1282405466297019,2,0.56136021127227687,0,-2.53481549516374020E-002,2,-13.376135572673967,4.16065021588238881E-002,-0.26766416694143530,0.20157662735390808,24.987985151435034,0.86441543282090261,106.44885727890531,194.62246122757500,291.57991177469933
201804230200,422.78053921429193,3.3050048621188348,6.90956775619280955E-002,0,-5.8499574014452387,2,-4.2830997422490826,1,-5.75793637517184875E-002,2,-9.61618418152041243E-002,1,-16.468875867156274,0.36291072026036214,0.41586265096293573,0.24327781605437887,207.77096458984761,0.10396062819768730,111.76188999723946,204.33637954156464,306.13313151672992
201804230230,423.83580471379435,3.6572951760058974,0.18124850000231552,0,-50.243966084238870,0,-12.011150523434967,0,-0.16525751174666903,0,-0.26922944062406512,0,-39.070836666529594,12.409944081193167,0.83323748812427334,0.39282413031342722,101.86337779957982,0.21204873102184815,105.10120436243368,192.15852188441210,287.88848165010756
201804230300,424.28982385651057,3.8579049115215471,0.16635844897678895,0,-57.013890082410860,0,-2.0110020336405574,2,0.84221905435011823,0,-4.50452499557102148E-002,2,-16.731278575521966,7.0904965681936556,0.35944736270480077,0.37585716701402810,78.637998767695066,0.27467636942044615,100.26056541850581,183.30829005230407,274.62922164221874
201804230330,423.90642670937814,3.8200671905413714,0.17193839915119985,0,-66.175563930889496,0,5.8860295247782872,0,1.1299801883176901,0,0.13181233257234837,0,-5.7169310518802199,-1.3386315982284585,-0.30375160968607040,0.38197016808043732,71.101569645449544,0.30379076169076369,91.596552814851336,167.46771176772990,250.89714884063426
201804230400,424.31289459233477,3.6870887373776768,0.19695620419793519,0,-46.005682823383239,0,3.5822757283933009,0,0.69588273646230725,0,8.01727414988689380E-002,0,-14.809910248494253,-4.7168124247297571,0.32267200562052378,0.40839858995374662,124.97680217289415,0.17283207462868466,102.44085992434935,187.29456377825340,280.60138607786928
201804230430,424.40916189841977,3.6863936215163160,0.11897729933773533,0,-44.534029117823742,0,2.6502059366299791,1,0.74454617221604380,0,5.92614853366636440E-002,1,-20.960349570257847,-2.47577296567807817E-002,7.66699794164787951E-002,0.31690249599870712,60.322335387779752,0.35807632216400864,97.517091435468217,178.29234462516226,267.11442136743165
201804230500,423.94605623362412,3.4624948754936176,0.11715017205314647,0,-52.008611004595728,0,15.593837034052999,0,1.6662985959472372,0,0.34860259657864273,0,-6.4573985665615270,-7.9854693842674456,-0.36923809997474732,0.31427274549293305,50.379761840223544,0.42874359089872505,108.22440085352594,197.86872116256023,296.44340070331754
201804230530,423.53472965681215,3.1238955558003116,0.10147527348657014,0,-59.982829569907835,0,8.4681417576473752,1,1.5138880964380634,0,0.18928713850901838,1,-2.5017578562759457,-12.082442758109202,-0.32808654700108836,0.29241517969383291,35.185692545448227,0.61388588478399220,93.807282785697680,171.50963123059805,256.95268073017007
201804230600,423.34540565222380,2.9828792605062491,0.15233899294816450,0,-63.114105254869351,0,10.758848057678721,0,1.4867388682280489,0,0.24040360069736458,0,-8.8577287382794641,-5.0410601109573552,-0.15122843268159511,0.35801455872766180,61.373705665904438,0.35194224897519377,105.40633510636579,192.71639820077942,288.72428203040067
201804230630,423.28139538501893,2.8740561722437046,7.59544559934172553E-002,0,-40.208928024332295,0,3.4649862779665890,0,0.57925009948043682,0,7.74034907348667423E-002,0,-6.5290166779456671,-3.8948871586305285,-5.11779047219647343E-002,0.25267384246940644,33.863690538216453,0.63785132856749871,94.379464016291848,172.55576100796793,258.51997376647449
201804230700,423.30474165148814,2.7918655257159353,8.97884596399204510E-002,0,-43.574351556219149,0,3.6858139839901423,0,0.51346353347974283,0,8.23137338294004789E-002,0,-6.7604122205380124,-2.9452782288805226,1.86835869430644376E-002,0.27458839701567361,40.100977893495916,0.53864023110277726,94.879629403877459,173.47022285604305,259.89000425165722
201804230730,423.70658707734259,2.7559158955050655,0.10486940007085054,0,-50.972146327065467,0,2.9260872958672381,0,0.48524567969679921,0,6.53182537933428703E-002,0,-10.802137142294281,-1.2908096208126041,0.32208765740079187,0.29652221861007311,43.165683404062612,0.50039749858256799,112.56283737187813,205.80076679146734,308.32705046337884
201804230800,423.87953347735595,2.7711841305863634,7.29061802698577621E-002,0,-38.267276016736126,0,1.2172333578195562,0,0.42084022774010332,0,2.71542634178183091E-002,0,-16.007033682306261,0.54986618643529961,0.13894530721847684,0.24694920075133830,33.209066334352713,0.65042479010185683,107.35451349312501,196.27828963140340,294.06064445507462
201804230830,424.25504289308060,2.8359383996918237,8.38807857097337572E-002,0,-41.745765009129755,0,-1.3737340714489490,2,0.50107459419911127,0,-3.06347205810117949E-002,2,-8.6629644825563545,2.3360883650794970,0.30210154445858672,0.26470499785301849,37.493271422825885,0.57610336949285068,102.68708036705628,187.74473327550419,281.27582201637364
201804230900,424.21735599105040,2.8760848815140756,7.97900877168357531E-002,0,-45.174803112941476,0,-0.99358171651570859,1,0.61115711210075441,0,-2.21538646623677081E-002,1,-3.7051172998086108,1.4495083794352530,-3.03395813362447066E-002,0.25808641932322640,32.115066330153994,0.67258151603812766,96.132441940747569,175.76076373750672,263.32165188328679
201804230930,424.22176510365085,2.9457522390026178,0.14363532155078507,0,-66.060345139872496,0,-0.64279003088811293,2,1.4308368215372300,0,-1.43305115790811760E-002,2,-3.0262457562723815,2.5166434905454382,3.55088094478376790E-003,0.34621361680300078,53.012643206821259,0.40744997218362955,98.407842727794929,179.92092207808926,269.55432715758326
201804231000,424.65788348841829,3.0218850056934290,0.13726894348775626,0,-57.540960657654729,0,-2.5133338911123619,1,0.68871835290984684,0,-5.60126421957202469E-002,1,-8.9029708062908863,2.7548591558741187,0.35169650660352203,0.33823344902481245,56.748291108416993,0.38062820180317741,96.845936193190980,177.06525878829373,265.27602317948697
201804231030,425.08630230693723,3.1781808033404624,0.17087110567200714,0,-71.783023964210827,0,-11.046825368590691,0,0.60598632600467850,0,-0.24611850881622557,0,-7.3468857179300944,5.6648037029156759,0.34594964536298861,0.37712665275596058,63.065808044843529,0.34249937754925969,108.53108077790597,198.42942987487214,297.28344452886569
201804231100,425.51909466371052,3.3568848906199507,8.88186839296179059E-002,0,-49.723745773437379,0,-7.2676780192367643,0,0.99633567564489978,0,-0.16189952716886305,0,-3.2404275753761516,6.4819577606187879,0.34970447940786825,0.27181983146315608,34.094850659200574,0.63352675205724041,96.700904248474700,176.80009413778606,264.87875821370073
201804231130,426.52855686941314,3.4164394389129864,9.55880929256563566E-002,0,-50.925776260891332,0,-9.7468142092609593,0,8.71848519611098105E-002,0,-0.21706704097146903,0,-6.7714247784163701,2.1633348632732452,0.81663892395791893,0.28182308652989868,37.106641005611408,0.58210604394867127,101.47748616447284,185.53320929289731,277.96255609799573
201804231200,426.94972242173924,3.6632185922700842,0.15971652830913907,0,-45.136041040706431,0,-9.6298667059420637,1,0.65959992998130357,0,-0.21458290142912045,1,13.868112728761290,8.9406546665082978,0.34000752625484149,0.36468848573985757,90.727273774969575,0.23807614955536280,102.04480258845055,186.57044465222182,279.51652367529294
201804231230,426.42741608140261,3.9153828741084489,0.18755734942284746,0,-15.938738469576329,0,-6.9126222059204938,0,1.9363361200629492,0,-0.15418130063588392,0,23.466032031992871,9.0940234226005714,-0.42013288732612630,0.39593332088833672,328.79539576735687,6.56943505841649372E-002,97.564613064732882,178.37922931970439,267.24459047232000
201804231300,425.82252690911128,4.1217617721438158,0.36902690119101195,0,9.6196904166125634,2,-6.4569652778283295,1,2.9489750235633565,1,-0.14419289725340684,1,29.673650839955407,7.3996382702348651,-0.48432448838506231,0.55667456126900405,-1514.1396311348781,-1.42655271388744832E-002,102.55005701963006,187.49421089505384,280.90049383930426
201804231330,425.51049267098574,4.2999899766081748,0.35967708684342881,0,29.902031740605910,0,-0.93297817420675877,0,0.68338502424983316,1,-2.08553224249340280E-002,0,24.118644462833952,6.3603716237469516,-0.24891652743762396,0.55061491708111454,-471.39661892880406,-4.58212874947715523E-002,107.44869926093941,196.45049125397807,294.31863386493558
201804231400,424.55627965243474,4.4811089934041455,0.44727645520765713,0,65.781497380918466,0,4.7609819136612739,1,1.4222365418264746,0,0.10652787383996469,1,23.514882272871542,6.4316853468642501,-0.75818083542614279,0.61525692609774030,-298.89536338703829,-7.22660925724373238E-002,114.60913895501837,209.54205871986420,313.93218752476747
201804231430,424.04398244855059,4.4899027363353801,0.52543909146166934,0,158.48116019110495,0,13.211913196654343,0,-0.14472407628814210,0,0.29585692414552162,0,19.417054724587409,0.31102936118806934,-0.40575663887856034,0.66791671822364540,-158.70376987932755,-0.13610262702911113,113.28844674987150,207.12741215568079,310.31460696540745
201804231500,424.49431642017333,4.3689751867786137,0.49686640738234578,0,185.44747077938499,0,15.956536613397322,0,-1.0064454967501248,0,0.35758899821924678,0,18.243629119687924,-4.2603758851111664,0.35555180737572800,0.65051711895193687,-125.26762581152715,-0.17243082448531857,103.51141227144076,189.25187490389550,283.53379481286629
201804231530,424.92508267673412,4.3407319670648015,0.46760491187147391,0,154.11978634535643,0,3.5812235254100750,2,-1.4999384780072926,0,8.03163145665579392E-002,2,18.028914320280382,-0.99132082760157991,0.33908926863114436,0.63201011231582649,-138.20896668441031,-0.15628508423279050,106.03388145802090,193.86375307724842,290.44322871078361
201804231600,424.62768904259059,4.4708002181544417,0.42603287250061078,1,181.40270407605379,0,6.5412310721358313,2,-1.3679083056857184,0,0.14680355356465954,2,16.753095105123297,4.5497799116007327,-0.23346825291832080,0.60409445564921549,-102.53390893411640,-0.21066201634699380,110.43652797087121,201.91319505482548,302.50275959356816
201804231630,424.15551204413902,4.7243933062601506,0.62865670527248163,1,302.81159725737638,0,28.195149402750435,1,1.3461139454250723,0,0.63316129073596117,1,14.408855617194122,8.8441260873019267,-0.36979607381922103,0.73473423746662558,-110.50537988923524,-0.19546559653159604,109.67278763130996,200.51683413161948,300.41075648033063
201804231700,424.41561021064325,4.8762792381475650,0.28752540080828681,1,119.70980719263406,0,8.8686958135501417,1,0.44929634829877685,0,0.19927630755121845,1,13.988357678641307,5.2814705452032520,0.20322190157930592,0.49749214597143471,-86.765224949892868,-0.24894766321961426,94.693761051654334,173.13039622850869,259.38088203909155
201804231730,423.97054995695407,4.9582874317398584,0.39345223595231982,1,158.54500062109574,0,3.2896247556817064,2,0.55592509881778529,0,7.39439440834166323E-002,2,8.7451376961599685,2.8460624438326767,-0.34718602877358362,0.58243272770059118,-105.10782372531389,-0.20550325593695948,116.26418217057250,212.56800556685749,318.46560730127283
201804231800,423.79797781267786,5.0646087272548854,0.30680891778716024,1,206.98275376097286,0,6.2278010363042915,2,1.1549001719578893,0,0.14006738711523617,2,13.380700464803732,3.6786903413569441,-0.13429070859774328,0.51496365346598305,-55.633233979104944,-0.38825713436167769,100.51733498407238,183.77774671061243,275.33255326256824
201804231830,423.67149633738251,5.0213814938880805,0.21471020198791871,0,197.92046663191636,0,13.006736070126564,1,-0.13922205370347385,0,0.29266076490277881,1,10.517429386089971,-1.4920259556124256,-9.82295231630413712E-002,0.43121657953159415,-34.152567021593157,-0.63245611922357925,87.909348430956868,160.72632618044796,240.79732478959406
201804231900,423.43042147912689,4.9375389280471476,0.30116035188315676,0,193.73993137568138,0,-2.9870194450405569,1,2.51259937369230357E-002,0,-6.72556145625015506E-002,1,15.911013395044021,-2.8835589288698373,-0.18668382314805690,0.51143598765011999,-58.189307097038892,-0.37120222043508699,89.098383041100917,162.90026067092992,244.05427479906655
201804231930,423.56876951230902,4.8834455423541474,0.25588480727923657,1,283.19518562907319,0,-2.40019486759359101E-002,2,-0.63244439277966435,0,-5.40561752505636095E-004,2,5.8462019497244961,-1.8578390131598630,0.10701279674356301,0.47168949883014683,-31.224657117781714,-0.69176099896063570,84.845044609827582,155.12380148584580,232.40372188341411
201804232000,423.47890268085649,4.6896417502254080,0.24612940732989971,1,210.70957813573830,0,11.462725676424132,1,0.50212550105942633,0,0.25830508567664090,1,13.255628894560530,-6.6376044343432126,-6.93575245037837407E-002,0.46310988739361431,-39.711538543318426,-0.54392251703967942,84.291797170842528,154.11228871816050,230.88829143566232
201804232030,423.10513545593767,4.5892993572980822,0.39587475015465284,1,176.95712907772523,0,13.167734055239091,0,1.5586844005742444,0,0.29674195490429672,0,1.2289871540905959,-3.4348083103401774,-0.28832823547849662,0.58745830257595699,-96.497380475001918,-0.22384027311078750,102.74452508260183,187.84976053657377,281.43317199192859
